TimeCDT,TemperatureF,Dew PointF,Humidity,Sea Level PressureIn,VisibilityMPH,Wind Direction,Wind SpeedMPH,Gust SpeedMPH,PrecipitationIn,Events,Conditions,WindDirDegrees,DateUTC
12:35 AM,69.8,68.0,94,29.92,1.2,Calm,Calm,-,N/A,,Partly Cloudy,0,2013-06-03 05:35:00
12:46 AM,69.8,68.0,94,29.92,2.0,Calm,Calm,-,N/A,,Partly Cloudy,0,2013-06-03 05:46:00
12:53 AM,70.0,68.0,93,29.92,1.5,Calm,Calm,-,N/A,,Partly Cloudy,0,2013-06-03 05:53:00
1:05 AM,69.8,68.0,94,29.92,2.5,Calm,Calm,-,N/A,,Mostly Cloudy,0,2013-06-03 06:05:00
1:15 AM,69.8,68.0,94,29.92,8.0,Calm,Calm,-,N/A,,Mostly Cloudy,0,2013-06-03 06:15:00
1:53 AM,70.0,68.0,93,29.91,8.0,Calm,Calm,-,N/A,,Mostly Cloudy,0,2013-06-03 06:53:00
2:53 AM,72.0,68.0,87,29.91,10.0,Calm,Calm,-,N/A,,Mostly Cloudy,0,2013-06-03 07:53:00
3:53 AM,70.0,68.0,93,29.92,8.0,Calm,Calm,-,N/A,,Partly Cloudy,0,2013-06-03 08:53:00
4:53 AM,71.1,68.0,90,29.92,10.0,Calm,Calm,-,N/A,,Clear,0,2013-06-03 09:53:00
5:53 AM,70.0,66.9,90,29.93,10.0,Calm,Calm,-,N/A,,Scattered Clouds,0,2013-06-03 10:53:00
6:01 AM,69.8,68.0,94,29.94,10.0,Calm,Calm,-,N/A,,Mostly Cloudy,0,2013-06-03 11:01:00
6:53 AM,71.1,68.0,90,29.96,10.0,North,4.6,-,N/A,,Mostly Cloudy,10,2013-06-03 11:53:00
7:53 AM,73.9,69.1,85,29.96,10.0,Variable,4.6,-,N/A,,Partly Cloudy,0,2013-06-03 12:53:00
8:07 AM,73.4,69.8,88,29.96,10.0,Variable,4.6,-,N/A,,Partly Cloudy,0,2013-06-03 13:07:00
8:22 AM,73.4,69.8,88,29.97,10.0,NE,6.9,-,N/A,,Mostly Cloudy,50,2013-06-03 13:22:00
8:43 AM,75.2,69.8,83,29.96,10.0,ENE,3.5,-,N/A,,Overcast,60,2013-06-03 13:43:00
8:53 AM,75.0,69.1,82,29.96,10.0,Variable,3.5,-,N/A,,Overcast,0,2013-06-03 13:53:00
9:53 AM,77.0,70.0,79,29.96,10.0,NE,5.8,-,N/A,,Overcast,40,2013-06-03 14:53:00
10:33 AM,78.8,69.8,74,29.97,10.0,North,5.8,-,N/A,,Overcast,10,2013-06-03 15:33:00
10:53 AM,79.0,70.0,74,29.96,10.0,East,4.6,-,N/A,,Overcast,80,2013-06-03 15:53:00
11:53 AM,81.0,70.0,69,29.95,10.0,East,8.1,-,N/A,,Mostly Cloudy,100,2013-06-03 16:53:00
12:31 PM,84.2,69.8,62,29.94,10.0,ENE,4.6,-,N/A,,Mostly Cloudy,60,2013-06-03 17:31:00
12:53 PM,84.0,69.1,61,29.94,10.0,NE,5.8,-,N/A,,Scattered Clouds,40,2013-06-03 17:53:00
1:03 PM,82.4,69.8,66,29.94,10.0,East,4.6,-,N/A,,Mostly Cloudy,90,2013-06-03 18:03:00
1:31 PM,84.2,69.8,62,29.93,10.0,Variable,5.8,-,N/A,,Mostly Cloudy,0,2013-06-03 18:31:00
1:53 PM,84.9,69.1,59,29.92,10.0,ENE,3.5,-,N/A,,Mostly Cloudy,60,2013-06-03 18:53:00
2:53 PM,86.0,69.1,57,29.90,10.0,NNE,8.1,-,N/A,,Partly Cloudy,30,2013-06-03 19:53:00
3:53 PM,84.9,68.0,57,29.89,10.0,Variable,3.5,-,N/A,,Partly Cloudy,0,2013-06-03 20:53:00
4:53 PM,86.0,66.9,53,29.87,10.0,NE,8.1,-,N/A,,Clear,50,2013-06-03 21:53:00
5:53 PM,86.0,66.9,53,29.86,10.0,ENE,5.8,-,N/A,,Clear,60,2013-06-03 22:53:00
6:53 PM,84.9,68.0,57,29.87,10.0,ENE,3.5,-,N/A,,Clear,70,2013-06-03 23:53:00
7:53 PM,77.0,70.0,79,29.88,10.0,Calm,Calm,-,N/A,,Clear,0,2013-06-04 00:53:00
8:53 PM,73.9,69.1,85,29.89,10.0,Calm,Calm,-,N/A,,Clear,0,2013-06-04 01:53:00
9:53 PM,72.0,68.0,87,29.91,10.0,Calm,Calm,-,N/A,,Clear,0,2013-06-04 02:53:00
10:53 PM,70.0,68.0,93,29.92,10.0,Calm,Calm,-,N/A,,Clear,0,2013-06-04 03:53:00
11:53 PM,70.0,66.9,90,29.92,7.0,Calm,Calm,-,N/A,,Clear,0,2013-06-04 04:53:00